This is the latest recevied weather packets stored in our database for station/object BMCB-28. If no packets are shown the sender has not sent any weather packets the latest 10 day(s).
| Time | Temp. | Humidity | Pressure | Rain* | Wind** | Luminosity | Snow |
|---|---|---|---|---|---|---|---|
| 1777689645 | 5.56° C | 71% | 1024.2 hPa | 0 mm | - | 0 W/m² | - |
| 1777685445 | 6.11° C | 67% | 1024.3 hPa | 0 mm | - | 0 W/m² | - |
| 1777680050 | 7.22° C | 63% | 1024.6 hPa | 0 mm | - | 0 W/m² | - |
| 1777662657 | 14.44° C | 39% | 1023.4 hPa | 0 mm | - | 0 W/m² | - |
| 1777650049 | 21.11° C | 27% | 1022 hPa | 0 mm | - | 468 W/m² | - |
| 1777648250 | 20.56° C | 26% | 1022.3 hPa | 0 mm | - | 548 W/m² | - |
| 1777647046 | 20.56° C | 26% | 1022.4 hPa | 0 mm | - | 594 W/m² | - |
| 1777645848 | 21.11° C | 27% | 1022.5 hPa | 0 mm | - | 638 W/m² | - |
| 1777643449 | 20.56° C | 27% | 1022.8 hPa | 0 mm | - | 712 W/m² | - |
| 1777639850 | 20° C | 26% | 1023.5 hPa | 0 mm | - | 786 W/m² | - |
| 1777638652 | 19.44° C | 25% | 1023.6 hPa | 0 mm | - | 800 W/m² | - |
| 1777636848 | 19.44° C | 27% | 1023.8 hPa | 0 mm | - | 810 W/m² | - |
| 1777635048 | 18.89° C | 28% | 1024 hPa | 0 mm | - | 804 W/m² | - |
| 1777629050 | 16.67° C | 28% | 1025.3 hPa | 0 mm | - | 714 W/m² | - |
| 1777624846 | 15° C | 31% | 1025.7 hPa | 0 mm | - | 568 W/m² | - |
| 1777623051 | 13.89° C | 31% | 1026 hPa | 0 mm | - | 488 W/m² | - |
| 1777621250 | 13.89° C | 32% | 1026.2 hPa | 0 mm | - | 404 W/m² | - |
| 1777615246 | 10° C | 36% | 1026.6 hPa | 0 mm | - | 118 W/m² | - |
| 1777609246 | 7.78° C | 39% | 1026.8 hPa | 0 mm | - | 0 W/m² | - |
| 1777596646 | 8.89° C | 38% | 1027.2 hPa | 0 mm | - | 0 W/m² | - |
| 1777594247 | 8.89° C | 38% | 1027.1 hPa | 0 mm | - | 0 W/m² | - |
| 1777593054 | 8.89° C | 39% | 1027.3 hPa | 0 mm | - | 0 W/m² | - |
| 1777592453 | 8.89° C | 39% | 1027.3 hPa | 0 mm | - | 0 W/m² | - |
| 1777590055 | 8.89° C | 39% | 1027.4 hPa | 0 mm | - | 0 W/m² | - |
| 1777585859 | 10° C | 35% | 1026.9 hPa | 0 mm | - | 0 W/m² | - |
* Rain latest hour (hover to see other rain measurements)
** Current wind speed in m/s (hover to see current wind gust speed)